| time (UTC) | temp C | wind direction | speed KPH | gust KPH | rain 1hr cm | rain 24hr cm | rain mn cm | humidity % | barometer mb |
| 20260904181849 | 22 | 318 | 11.3 | 12.9 | 0.00 | 0.00 | 0.00 | 30 | 1031.8 |
| 20260904181344 | 22 | 19 | 3.2 | 4.8 | 0.00 | 0.00 | 0.00 | 30 | 1031.9 |
| 20260904180839 | 21 | 131 | 11.3 | 14.5 | 0.00 | 0.00 | 0.00 | 30 | 1031.8 |
| 20260904180329 | 21 | 330 | 4.8 | 11.3 | 0.00 | 0.00 | 0.00 | 30 | 1032.0 |
| 20260904175828 | 22 | 339 | 3.2 | 6.4 | 0.00 | 0.00 | 0.00 | 29 | 1031.9 |
| 20260904175326 | 21 | 254 | 3.2 | 11.3 | 0.00 | 0.00 | 0.00 | 30 | 1032.1 |
| 20260904174821 | 21 | 30 | 4.8 | 12.9 | 0.00 | 0.00 | 0.00 | 30 | 1032.0 |
| 20260904174317 | 21 | 331 | 1.6 | 4.8 | 0.00 | 0.00 | 0.00 | 31 | 1032.0 |
| 20260904173812 | 21 | 242 | 0.0 | 9.7 | 0.00 | 0.00 | 0.00 | 29 | 1032.1 |
| 20260904173308 | 21 | 240 | 0.0 | 3.2 | 0.00 | 0.00 | 0.00 | 29 | 1032.1 |
| 20260904172804 | 21 | 298 | 1.6 | 6.4 | 0.00 | 0.00 | 0.00 | 32 | 1032.3 |
| 20260904172305 | 21 | 297 | 4.8 | 6.4 | 0.00 | 0.00 | 0.00 | 32 | 1032.1 |
| 20260904171753 | 21 | 241 | 1.6 | 4.8 | 0.00 | 0.00 | 0.00 | 30 | 1032.4 |
| 20260904171248 | 21 | 316 | 3.2 | 4.8 | 0.00 | 0.00 | 0.00 | 31 | 1032.0 |
| 20260904170744 | 21 | 40 | 3.2 | 6.4 | 0.00 | 0.00 | 0.00 | 31 | 1032.3 |
| 20260904170240 | 21 | 274 | 4.8 | 6.4 | 0.00 | 0.00 | 0.00 | 29 | 1032.0 |
| 20260904165738 | 21 | 264 | 1.6 | 4.8 | 0.00 | 0.00 | 0.00 | 29 | 1032.4 |
| 20260904165232 | 20 | 140 | 4.8 | 6.4 | 0.00 | 0.00 | 0.00 | 30 | 1032.3 |
| 20260904164727 | 20 | 0 | 8.0 | 9.7 | 0.00 | 0.00 | 0.00 | 31 | 1032.0 |
| 20260904164222 | 20 | 331 | 6.4 | 14.5 | 0.00 | 0.00 | 0.00 | 32 | 1032.1 |
| 20260904163718 | 20 | 8 | 4.8 | 6.4 | 0.00 | 0.00 | 0.00 | 31 | 1032.1 |
| 20260904163214 | 20 | 260 | 4.8 | 11.3 | 0.00 | 0.00 | 0.00 | 31 | 1032.3 |
| 20260904162712 | 20 | 151 | 4.8 | 4.8 | 0.00 | 0.00 | 0.00 | 32 | 1032.3 |
| 20260904162207 | 20 | 162 | 4.8 | 9.7 | 0.00 | 0.00 | 0.00 | 34 | 1032.0 |
| 20260904161703 | 20 | 98 | 3.2 | 11.3 | 0.00 | 0.00 | 0.00 | 34 | 1031.9 |
| 20260904161158 | 21 | 336 | 4.8 | 6.4 | 0.00 | 0.00 | 0.00 | 33 | 1031.9 |
| 20260904160654 | 20 | 238 | 1.6 | 6.4 | 0.00 | 0.00 | 0.00 | 34 | 1032.1 |
| 20260904160149 | 20 | 269 | 0.0 | 11.3 | 0.00 | 0.00 | 0.00 | 34 | 1031.9 |
| 20260904155644 | 19 | 117 | 8.0 | 9.7 | 0.00 | 0.00 | 0.00 | 34 | 1031.9 |
| 20260904155143 | 20 | 28 | 1.6 | 9.7 | 0.00 | 0.00 | 0.00 | 35 | 1031.8 |
| 20260904154641 | 20 | 191 | 3.2 | 6.4 | 0.00 | 0.00 | 0.00 | 34 | 1031.9 |
| 20260904154136 | 20 | 278 | 1.6 | 4.8 | 0.00 | 0.00 | 0.00 | 35 | 1031.9 |
| 20260904153632 | 19 | 131 | 4.8 | 9.7 | 0.00 | 0.00 | 0.00 | 33 | 1031.8 |
| 20260904153127 | 21 | 258 | 6.4 | 6.4 | 0.00 | 0.00 | 0.00 | 35 | 1031.5 |
| 20260904152623 | 20 | 224 | 1.6 | 3.2 | 0.00 | 0.00 | 0.00 | 33 | 1031.6 |
| 20260904152118 | 19 | 329 | 6.4 | 9.7 | 0.00 | 0.00 | 0.00 | 37 | 1031.6 |
| 20260904151613 | 20 | 247 | 3.2 | 4.8 | 0.00 | 0.00 | 0.00 | 35 | 1031.4 |
| 20260904151112 | 19 | 226 | 3.2 | 3.2 | 0.00 | 0.00 | 0.00 | 35 | 1031.5 |
| 20260904150608 | 20 | 272 | 1.6 | 3.2 | 0.00 | 0.00 | 0.00 | 31 | 1031.5 |
| 20260904145602 | 19 | 259 | 1.6 | 1.6 | 0.00 | 0.00 | 0.00 | 32 | 1031.5 |
| 20260904145056 | 19 | 313 | 4.8 | 4.8 | 0.00 | 0.00 | 0.00 | 33 | 1031.5 |
| 20260904144552 | 18 | 253 | 0.0 | 1.6 | 0.00 | 0.00 | 0.00 | 34 | 1031.8 |
| 20260904144048 | 19 | 247 | 1.6 | 3.2 | 0.00 | 0.00 | 0.00 | 36 | 1031.4 |
| 20260904143544 | 18 | 258 | 0.0 | 1.6 | 0.00 | 0.00 | 0.00 | 34 | 1031.2 |
| 20260904143041 | 17 | 272 | 1.6 | 6.4 | 0.00 | 0.00 | 0.00 | 38 | 1031.2 |
| 20260904142536 | 17 | 242 | 1.6 | 4.8 | 0.00 | 0.00 | 0.00 | 38 | 1031.4 |
| 20260904142032 | 17 | 240 | 1.6 | 1.6 | 0.00 | 0.00 | 0.00 | 44 | 1031.5 |
| 20260904141532 | 16 | 252 | 0.0 | 0.0 | 0.00 | 0.00 | 0.00 | 46 | 1031.6 |
| 20260904141027 | 15 | 241 | 0.0 | 0.0 | 0.00 | 0.00 | 0.00 | 46 | 1031.4 |
| 20260904140527 | 15 | 234 | 0.0 | 0.0 | 0.00 | 0.00 | 0.00 | 43 | 1031.2 |
| 20260904140022 | 15 | 214 | 0.0 | 0.0 | 0.00 | 0.00 | 0.00 | 47 | 1031.2 |
| 20260904135521 | 15 | 211 | 0.0 | 0.0 | 0.00 | 0.00 | 0.00 | 48 | 1031.0 |
| 20260904135017 | 14 | 250 | 0.0 | 0.0 | 0.00 | 0.00 | 0.00 | 48 | 1031.2 |
| 20260904134512 | 13 | 244 | 1.6 | 1.6 | 0.00 | 0.00 | 0.00 | 50 | 1031.1 |
| 20260904134007 | 13 | 236 | 1.6 | 3.2 | 0.00 | 0.00 | 0.00 | 48 | 1031.1 |
| 20260904133501 | 13 | 225 | 3.2 | 4.8 | 0.00 | 0.00 | 0.00 | 50 | 1030.8 |
| 20260904132957 | 13 | 222 | 3.2 | 3.2 | 0.00 | 0.00 | 0.00 | 49 | 1031.0 |
| 20260904132457 | 12 | 223 | 3.2 | 3.2 | 0.00 | 0.00 | 0.00 | 47 | 1030.7 |
| 20260904131952 | 12 | 209 | 4.8 | 4.8 | 0.00 | 0.00 | 0.00 | 48 | 1030.7 |
| 20260904131447 | 12 | 212 | 3.2 | 4.8 | 0.00 | 0.00 | 0.00 | 47 | 1030.8 |
| 20260904130943 | 12 | 236 | 1.6 | 4.8 | 0.00 | 0.00 | 0.00 | 47 | 1030.7 |
| 20260904130442 | 12 | 210 | 3.2 | 4.8 | 0.00 | 0.00 | 0.00 | 46 | 1030.4 |
| 20260904125936 | 12 | 209 | 3.2 | 4.8 | 0.00 | 0.00 | 0.00 | 44 | 1030.2 |
| 20260904125433 | 12 | 207 | 4.8 | 6.4 | 0.00 | 0.00 | 0.00 | 44 | 1030.6 |
| 20260904124927 | 11 | 212 | 3.2 | 4.8 | 0.00 | 0.00 | 0.00 | 45 | 1029.9 |
| 20260904124423 | 11 | 209 | 4.8 | 4.8 | 0.00 | 0.00 | 0.00 | 46 | 1030.2 |
| 20260904123918 | 11 | 203 | 4.8 | 4.8 | 0.00 | 0.00 | 0.00 | 46 | 1030.2 |
| 20260904123413 | 11 | 200 | 4.8 | 6.4 | 0.00 | 0.00 | 0.00 | 47 | 1030.3 |
| 20260904122908 | 11 | 189 | 6.4 | 6.4 | 0.00 | 0.00 | 0.00 | 45 | 1030.0 |
| 20260904122407 | 11 | 196 | 4.8 | 4.8 | 0.00 | 0.00 | 0.00 | 49 | 1029.9 |
| 20260904121902 | 11 | 198 | 4.8 | 4.8 | 0.00 | 0.00 | 0.00 | 47 | 1029.9 |
| 20260904121359 | 12 | 234 | 1.6 | 4.8 | 0.00 | 0.00 | 0.00 | 44 | 1029.9 |
| 20260904120855 | 12 | 207 | 4.8 | 4.8 | 0.00 | 0.00 | 0.00 | 42 | 1029.9 |
| 20260904120351 | 13 | 227 | 3.2 | 4.8 | 0.00 | 0.00 | 0.00 | 40 | 1029.6 |
| 20260904115846 | 14 | 282 | 1.6 | 6.4 | 0.00 | 0.00 | 0.00 | 39 | 1030.0 |
| 20260904115341 | 14 | 244 | 1.6 | 6.4 | 0.00 | 0.00 | 0.00 | 39 | 1029.8 |
| 20260904114841 | 14 | 214 | 3.2 | 9.7 | 0.00 | 0.00 | 0.00 | 38 | 1029.8 |
| 20260904114335 | 13 | 188 | 6.4 | 9.7 | 0.00 | 0.00 | 0.00 | 38 | 1029.8 |
| 20260904113831 | 14 | 224 | 4.8 | 6.4 | 0.00 | 0.00 | 0.00 | 38 | 1029.8 |
| 20260904113330 | 13 | 206 | 9.7 | 12.9 | 0.00 | 0.00 | 0.00 | 38 | 1029.9 |
| 20260904112825 | 13 | 202 | 3.2 | 9.7 | 0.00 | 0.00 | 0.00 | 43 | 1029.6 |
| 20260904112320 | 11 | 207 | 3.2 | 9.7 | 0.00 | 0.00 | 0.00 | 41 | 1029.9 |
| 20260904111816 | 11 | 239 | 4.8 | 4.8 | 0.00 | 0.00 | 0.00 | 45 | 1029.8 |
| 20260904111312 | 11 | 200 | 4.8 | 4.8 | 0.00 | 0.00 | 0.00 | 47 | 1029.5 |
| 20260904110808 | 11 | 209 | 3.2 | 4.8 | 0.00 | 0.00 | 0.00 | 48 | 1029.5 |
| 20260904110307 | 11 | 250 | 0.0 | 3.2 | 0.00 | 0.00 | 0.00 | 47 | 1029.9 |
| 20260904105802 | 11 | 211 | 6.4 | 6.4 | 0.00 | 0.00 | 0.00 | 46 | 1029.6 |
| 20260904105305 | 11 | 205 | 4.8 | 4.8 | 0.00 | 0.00 | 0.00 | 49 | 1029.5 |
| 20260904104757 | 11 | 195 | 4.8 | 4.8 | 0.00 | 0.00 | 0.00 | 48 | 1029.3 |
| 20260904104253 | 11 | 198 | 4.8 | 6.4 | 0.00 | 0.00 | 0.00 | 47 | 1029.5 |
| 20260904103749 | 11 | 214 | 4.8 | 4.8 | 0.00 | 0.00 | 0.00 | 48 | 1029.5 |
| 20260904103243 | 11 | 209 | 4.8 | 4.8 | 0.00 | 0.00 | 0.00 | 49 | 1029.5 |
| 20260904102739 | 11 | 205 | 4.8 | 4.8 | 0.00 | 0.00 | 0.00 | 49 | 1029.4 |
| 20260904102234 | 11 | 209 | 4.8 | 4.8 | 0.00 | 0.00 | 0.00 | 49 | 1029.3 |
| 20260904101731 | 11 | 206 | 3.2 | 4.8 | 0.00 | 0.00 | 0.00 | 49 | 1029.1 |
| 20260904101226 | 11 | 204 | 4.8 | 4.8 | 0.00 | 0.00 | 0.00 | 50 | 1029.1 |
| 20260904100722 | 11 | 207 | 4.8 | 4.8 | 0.00 | 0.00 | 0.00 | 49 | 1029.1 |
| 20260904100218 | 11 | 199 | 6.4 | 6.4 | 0.00 | 0.00 | 0.00 | 49 | 1029.3 |
| 20260904095717 | 11 | 206 | 4.8 | 6.4 | 0.00 | 0.00 | 0.00 | 47 | 1029.1 |
| 20260904095212 | 11 | 198 | 6.4 | 6.4 | 0.00 | 0.00 | 0.00 | 47 | 1029.3 |
| 20260904094707 | 11 | 198 | 6.4 | 6.4 | 0.00 | 0.00 | 0.00 | 47 | 1029.3 |
| 20260904094202 | 12 | 200 | 4.8 | 4.8 | 0.00 | 0.00 | 0.00 | 44 | 1029.3 |
| 20260904093659 | 12 | 214 | 4.8 | 9.7 | 0.00 | 0.00 | 0.00 | 43 | 1029.3 |
| 20260904093158 | 12 | 219 | 3.2 | 4.8 | 0.00 | 0.00 | 0.00 | 45 | 1029.3 |
| 20260904092654 | 13 | 240 | 1.6 | 4.8 | 0.00 | 0.00 | 0.00 | 44 | 1029.1 |
| 20260904092150 | 14 | 224 | 3.2 | 3.2 | 0.00 | 0.00 | 0.00 | 41 | 1029.1 |
| 20260904091646 | 15 | 222 | 6.4 | 6.4 | 0.00 | 0.00 | 0.00 | 39 | 1029.1 |
| 20260904091146 | 15 | 214 | 6.4 | 9.7 | 0.00 | 0.00 | 0.00 | 38 | 1029.1 |
| 20260904090641 | 15 | 255 | 6.4 | 9.7 | 0.00 | 0.00 | 0.00 | 39 | 1029.3 |
| 20260904090137 | 15 | 225 | 4.8 | 6.4 | 0.00 | 0.00 | 0.00 | 40 | 1029.1 |
| 20260904085637 | 14 | 215 | 3.2 | 9.7 | 0.00 | 0.00 | 0.00 | 41 | 1029.3 |
| 20260904085132 | 13 | 212 | 6.4 | 9.7 | 0.00 | 0.00 | 0.00 | 42 | 1029.4 |
| 20260904084627 | 13 | 225 | 3.2 | 6.4 | 0.00 | 0.00 | 0.00 | 43 | 1029.3 |
| 20260904084124 | 13 | 189 | 3.2 | 6.4 | 0.00 | 0.00 | 0.00 | 43 | 1029.0 |
| 20260904083620 | 13 | 252 | 3.2 | 6.4 | 0.00 | 0.00 | 0.00 | 44 | 1029.3 |
| 20260904083115 | 12 | 226 | 1.6 | 4.8 | 0.00 | 0.00 | 0.00 | 47 | 1029.1 |
| 20260904082610 | 12 | 222 | 3.2 | 3.2 | 0.00 | 0.00 | 0.00 | 53 | 1029.1 |
| 20260904082106 | 11 | 227 | 4.8 | 4.8 | 0.00 | 0.00 | 0.00 | 55 | 1029.0 |
| 20260904081601 | 11 | 242 | 1.6 | 4.8 | 0.00 | 0.00 | 0.00 | 57 | 1029.0 |
| 20260904081055 | 11 | 201 | 4.8 | 4.8 | 0.00 | 0.00 | 0.00 | 54 | 1029.1 |
| 20260904080551 | 12 | 205 | 6.4 | 6.4 | 0.00 | 0.00 | 0.00 | 53 | 1029.1 |
| 20260904080047 | 12 | 205 | 4.8 | 4.8 | 0.00 | 0.00 | 0.00 | 53 | 1029.4 |
| 20260904075543 | 12 | 210 | 4.8 | 4.8 | 0.00 | 0.00 | 0.00 | 53 | 1029.3 |
| 20260904075038 | 12 | 206 | 4.8 | 4.8 | 0.00 | 0.00 | 0.00 | 54 | 1029.1 |
| 20260904074537 | 12 | 215 | 3.2 | 4.8 | 0.00 | 0.00 | 0.00 | 54 | 1029.3 |
| 20260904074032 | 12 | 221 | 3.2 | 4.8 | 0.00 | 0.00 | 0.00 | 54 | 1029.4 |
| 20260904073527 | 12 | 208 | 3.2 | 4.8 | 0.00 | 0.00 | 0.00 | 53 | 1029.3 |
| 20260904073023 | 12 | 208 | 4.8 | 4.8 | 0.00 | 0.00 | 0.00 | 51 | 1029.1 |
| 20260904072519 | 12 | 216 | 4.8 | 4.8 | 0.00 | 0.00 | 0.00 | 51 | 1029.5 |
| 20260904072013 | 12 | 208 | 4.8 | 4.8 | 0.00 | 0.00 | 0.00 | 51 | 1029.5 |
| 20260904071509 | 12 | 205 | 4.8 | 4.8 | 0.00 | 0.00 | 0.00 | 51 | 1029.4 |
| 20260904071004 | 12 | 216 | 4.8 | 4.8 | 0.00 | 0.00 | 0.00 | 50 | 1029.5 |
| 20260904070502 | 12 | 210 | 3.2 | 4.8 | 0.00 | 0.00 | 0.00 | 51 | 1029.6 |
| 20260904065957 | 12 | 208 | 4.8 | 4.8 | 0.00 | 0.00 | 0.00 | 51 | 1029.5 |
| 20260904065453 | 12 | 207 | 4.8 | 4.8 | 0.00 | 0.00 | 0.00 | 52 | 1029.6 |
| 20260904064948 | 12 | 204 | 4.8 | 4.8 | 0.00 | 0.00 | 0.00 | 52 | 1029.6 |
| 20260904064444 | 12 | 207 | 4.8 | 6.4 | 0.00 | 0.00 | 0.00 | 50 | 1029.6 |
| 20260904063939 | 12 | 205 | 4.8 | 4.8 | 0.00 | 0.00 | 0.00 | 50 | 1029.8 |
| 20260904063436 | 12 | 207 | 4.8 | 4.8 | 0.00 | 0.00 | 0.00 | 51 | 1029.9 |
| 20260904062931 | 12 | 217 | 4.8 | 4.8 | 0.00 | 0.00 | 0.00 | 49 | 1029.8 |
| 20260904062426 | 13 | 198 | 4.8 | 4.8 | 0.00 | 0.00 | 0.00 | 49 | 1030.0 |
| 20260904061922 | 12 | 193 | 6.4 | 9.7 | 0.00 | 0.00 | 0.00 | 48 | 1029.9 |
| 20260904061419 | 12 | 205 | 4.8 | 4.8 | 0.00 | 0.00 | 0.00 | 51 | 1029.8 |
| 20260904060915 | 12 | 197 | 6.4 | 6.4 | 0.00 | 0.00 | 0.00 | 50 | 1029.9 |
| 20260904060410 | 12 | 207 | 4.8 | 4.8 | 0.00 | 0.00 | 0.00 | 51 | 1030.0 |
| 20260904055906 | 12 | 205 | 3.2 | 4.8 | 0.00 | 0.00 | 0.00 | 51 | 1029.8 |
| 20260904055401 | 12 | 206 | 4.8 | 4.8 | 0.00 | 0.00 | 0.00 | 50 | 1029.6 |
| 20260904054856 | 12 | 202 | 4.8 | 4.8 | 0.00 | 0.00 | 0.00 | 51 | 1029.9 |
| 20260904054352 | 12 | 210 | 6.4 | 6.4 | 0.00 | 0.00 | 0.00 | 50 | 1029.9 |
| 20260904053847 | 12 | 201 | 4.8 | 4.8 | 0.00 | 0.00 | 0.00 | 51 | 1029.8 |
| 20260904053347 | 12 | 200 | 4.8 | 6.4 | 0.00 | 0.00 | 0.00 | 50 | 1029.8 |
| 20260904052843 | 13 | 203 | 4.8 | 4.8 | 0.00 | 0.00 | 0.00 | 50 | 1029.6 |
| 20260904052339 | 12 | 196 | 4.8 | 4.8 | 0.00 | 0.00 | 0.00 | 50 | 1029.5 |
| 20260904051835 | 13 | 201 | 4.8 | 4.8 | 0.00 | 0.00 | 0.00 | 51 | 1029.9 |
| 20260904051331 | 13 | 205 | 4.8 | 4.8 | 0.00 | 0.00 | 0.00 | 48 | 1029.8 |
| 20260904050830 | 13 | 206 | 6.4 | 6.4 | 0.00 | 0.00 | 0.00 | 47 | 1029.8 |
| 20260904050328 | 14 | 215 | 3.2 | 6.4 | 0.00 | 0.00 | 0.00 | 46 | 1029.8 |
| 20260904045822 | 14 | 202 | 4.8 | 6.4 | 0.00 | 0.00 | 0.00 | 46 | 1029.9 |
| 20260904045317 | 14 | 212 | 3.2 | 4.8 | 0.00 | 0.00 | 0.00 | 47 | 1029.8 |
| 20260904044817 | 15 | 226 | 3.2 | 4.8 | 0.00 | 0.00 | 0.00 | 46 | 1029.8 |
| 20260904044314 | 15 | 229 | 3.2 | 3.2 | 0.00 | 0.00 | 0.00 | 43 | 1029.9 |
| 20260904043809 | 16 | 244 | 3.2 | 4.8 | 0.00 | 0.00 | 0.00 | 43 | 1029.9 |
| 20260904043306 | 16 | 202 | 4.8 | 6.4 | 0.00 | 0.00 | 0.00 | 43 | 1029.8 |
| 20260904042800 | 16 | 209 | 3.2 | 6.4 | 0.00 | 0.00 | 0.00 | 42 | 1029.9 |
| 20260904042257 | 16 | 248 | 1.6 | 3.2 | 0.00 | 0.00 | 0.00 | 42 | 1030.0 |
| 20260904041756 | 16 | 246 | 3.2 | 9.7 | 0.00 | 0.00 | 0.00 | 42 | 1030.0 |
| 20260904041253 | 16 | 230 | 3.2 | 9.7 | 0.00 | 0.00 | 0.00 | 43 | 1030.2 |
| 20260904040748 | 16 | 245 | 3.2 | 3.2 | 0.00 | 0.00 | 0.00 | 42 | 1030.0 |
| 20260904040244 | 15 | 215 | 4.8 | 4.8 | 0.00 | 0.00 | 0.00 | 43 | 1030.0 |
| 20260904035740 | 15 | 226 | 3.2 | 4.8 | 0.00 | 0.00 | 0.00 | 43 | 1030.2 |
| 20260904035235 | 15 | 232 | 3.2 | 4.8 | 0.00 | 0.00 | 0.00 | 43 | 1030.3 |
| 20260904034734 | 15 | 234 | 3.2 | 4.8 | 0.00 | 0.00 | 0.00 | 44 | 1030.4 |
| 20260904034230 | 15 | 224 | 3.2 | 4.8 | 0.00 | 0.00 | 0.00 | 43 | 1030.2 |
| 20260904033725 | 15 | 227 | 4.8 | 4.8 | 0.00 | 0.00 | 0.00 | 43 | 1030.2 |
| 20260904033222 | 15 | 220 | 3.2 | 3.2 | 0.00 | 0.00 | 0.00 | 43 | 1030.2 |
| 20260904032713 | 15 | 194 | 3.2 | 4.8 | 0.00 | 0.00 | 0.00 | 42 | 1029.9 |
| 20260904032211 | 15 | 198 | 4.8 | 4.8 | 0.00 | 0.00 | 0.00 | 44 | 1030.2 |
| 20260904031706 | 15 | 254 | 1.6 | 3.2 | 0.00 | 0.00 | 0.00 | 44 | 1029.9 |
| 20260904031201 | 15 | 225 | 1.6 | 3.2 | 0.00 | 0.00 | 0.00 | 43 | 1030.0 |
| 20260904030657 | 15 | 222 | 3.2 | 4.8 | 0.00 | 0.00 | 0.00 | 43 | 1030.2 |
| 20260904030152 | 15 | 227 | 3.2 | 3.2 | 0.00 | 0.00 | 0.00 | 43 | 1030.3 |
| 20260904025648 | 16 | 244 | 1.6 | 3.2 | 0.00 | 0.00 | 0.00 | 41 | 1029.9 |
| 20260904025143 | 16 | 252 | 0.0 | 1.6 | 0.00 | 0.00 | 0.00 | 42 | 1030.2 |
| 20260904024639 | 16 | 254 | 0.0 | 3.2 | 0.00 | 0.00 | 0.00 | 41 | 1030.0 |
| 20260904024134 | 16 | 259 | 1.6 | 3.2 | 0.00 | 0.00 | 0.00 | 40 | 1030.0 |
| 20260904023630 | 16 | 249 | 1.6 | 3.2 | 0.00 | 0.00 | 0.00 | 42 | 1029.8 |
| 20260904023125 | 16 | 247 | 0.0 | 1.6 | 0.00 | 0.00 | 0.00 | 44 | 1029.9 |
| 20260904022625 | 16 | 236 | 3.2 | 3.2 | 0.00 | 0.00 | 0.00 | 43 | 1029.6 |
| 20260904022122 | 17 | 248 | 1.6 | 1.6 | 0.00 | 0.00 | 0.00 | 41 | 1029.5 |
| 20260904021617 | 16 | 276 | 3.2 | 4.8 | 0.00 | 0.00 | 0.00 | 39 | 1029.4 |
| 20260904021112 | 17 | 255 | 0.0 | 1.6 | 0.00 | 0.00 | 0.00 | 41 | 1029.5 |
| 20260904020608 | 16 | 267 | 0.0 | 1.6 | 0.00 | 0.00 | 0.00 | 40 | 1029.6 |
| 20260904020057 | 17 | 253 | 0.0 | 1.6 | 0.00 | 0.00 | 0.00 | 40 | 1029.4 |
| 20260904015556 | 17 | 269 | 0.0 | 1.6 | 0.00 | 0.00 | 0.00 | 38 | 1029.5 |
| 20260904015056 | 17 | 272 | 3.2 | 6.4 | 0.00 | 0.00 | 0.00 | 38 | 1029.4 |
| 20260904014550 | 17 | 296 | 0.0 | 3.2 | 0.00 | 0.00 | 0.00 | 39 | 1029.3 |
| 20260904014046 | 17 | 259 | 0.0 | 3.2 | 0.00 | 0.00 | 0.00 | 39 | 1029.1 |
| 20260904013542 | 17 | 298 | 3.2 | 4.8 | 0.00 | 0.00 | 0.00 | 38 | 1029.4 |
| 20260904013038 | 17 | 267 | 1.6 | 3.2 | 0.00 | 0.00 | 0.00 | 38 | 1029.3 |
| 20260904012532 | 17 | 315 | 3.2 | 6.4 | 0.00 | 0.00 | 0.00 | 38 | 1029.4 |
| 20260904012026 | 18 | 333 | 6.4 | 11.3 | 0.00 | 0.00 | 0.00 | 37 | 1029.3 |
| 20260904011525 | 18 | 259 | 0.0 | 1.6 | 0.00 | 0.00 | 0.00 | 38 | 1029.3 |
| 20260904011021 | 18 | 284 | 1.6 | 6.4 | 0.00 | 0.00 | 0.00 | 38 | 1029.4 |
| 20260904010517 | 18 | 278 | 3.2 | 4.8 | 0.00 | 0.00 | 0.00 | 38 | 1029.6 |
| 20260904010013 | 18 | 43 | 3.2 | 9.7 | 0.00 | 0.00 | 0.00 | 38 | 1029.3 |
| 20260904005508 | 18 | 355 | 4.8 | 6.4 | 0.00 | 0.00 | 0.00 | 37 | 1029.1 |
| 20260904005003 | 18 | 27 | 3.2 | 11.3 | 0.00 | 0.00 | 0.00 | 37 | 1029.3 |
| 20260904004458 | 19 | 352 | 6.4 | 11.3 | 0.00 | 0.00 | 0.00 | 37 | 1029.3 |
| 20260904003953 | 19 | 272 | 4.8 | 11.3 | 0.00 | 0.00 | 0.00 | 35 | 1029.3 |
| 20260904003449 | 20 | 288 | 1.6 | 4.8 | 0.00 | 0.00 | 0.00 | 35 | 1029.3 |
| 20260904002944 | 20 | 297 | 4.8 | 14.5 | 0.00 | 0.00 | 0.00 | 34 | 1029.3 |
| 20260904002441 | 20 | 326 | 17.7 | 22.5 | 0.00 | 0.00 | 0.00 | 34 | 1029.1 |
| 20260904001939 | 19 | 271 | 1.6 | 3.2 | 0.00 | 0.00 | 0.00 | 36 | 1029.1 |
| 20260904001435 | 20 | 252 | 1.6 | 14.5 | 0.00 | 0.00 | 0.00 | 35 | 1028.9 |
| 20260904000934 | 20 | 264 | 4.8 | 9.7 | 0.00 | 0.00 | 0.00 | 34 | 1029.3 |
| 20260904000435 | 20 | 315 | 4.8 | 4.8 | 0.00 | 0.00 | 0.00 | 34 | 1029.3 |
| 20260903235930 | 20 | 262 | 0.0 | 4.8 | 0.00 | 0.00 | 0.00 | 34 | 1029.3 |
| 20260903235426 | 20 | 16 | 4.8 | 14.5 | 0.00 | 0.00 | 0.00 | 33 | 1029.0 |
| 20260903234925 | 20 | 281 | 6.4 | 12.9 | 0.00 | 0.00 | 0.00 | 33 | 1029.1 |
| 20260903234421 | 21 | 284 | 3.2 | 9.7 | 0.00 | 0.00 | 0.00 | 33 | 1029.1 |
| 20260903233917 | 21 | 47 | 9.7 | 12.9 | 0.00 | 0.00 | 0.00 | 33 | 1029.1 |
| 20260903233413 | 21 | 14 | 6.4 | 12.9 | 0.00 | 0.00 | 0.00 | 33 | 1029.1 |
| 20260903232908 | 21 | 299 | 6.4 | 12.9 | 0.00 | 0.00 | 0.00 | 33 | 1028.9 |
| 20260903232403 | 21 | 354 | 9.7 | 17.7 | 0.00 | 0.00 | 0.00 | 33 | 1029.0 |
| 20260903231903 | 21 | 289 | 9.7 | 11.3 | 0.00 | 0.00 | 0.00 | 33 | 1029.3 |
| 20260903231357 | 20 | 14 | 9.7 | 12.9 | 0.00 | 0.00 | 0.00 | 33 | 1029.0 |
| 20260903230853 | 21 | 344 | 8.0 | 11.3 | 0.00 | 0.00 | 0.00 | 33 | 1029.3 |
| 20260903230348 | 21 | 317 | 9.7 | 14.5 | 0.00 | 0.00 | 0.00 | 34 | 1028.9 |
| 20260903225844 | 21 | 332 | 8.0 | 12.9 | 0.00 | 0.00 | 0.00 | 33 | 1029.1 |
| 20260903225339 | 21 | 269 | 6.4 | 12.9 | 0.00 | 0.00 | 0.00 | 33 | 1029.1 |
| 20260903224835 | 21 | 353 | 11.3 | 17.7 | 0.00 | 0.00 | 0.00 | 33 | 1029.0 |
| 20260903224326 | 21 | 135 | 4.8 | 17.7 | 0.00 | 0.00 | 0.00 | 33 | 1028.9 |
| 20260903223822 | 21 | 312 | 12.9 | 16.1 | 0.00 | 0.00 | 0.00 | 33 | 1029.1 |
| 20260903223320 | 22 | 15 | 9.7 | 12.9 | 0.00 | 0.00 | 0.00 | 33 | 1029.0 |
| 20260903222815 | 21 | 305 | 4.8 | 16.1 | 0.00 | 0.00 | 0.00 | 32 | 1028.9 |
| 20260903222313 | 22 | 294 | 4.8 | 4.8 | 0.00 | 0.00 | 0.00 | 31 | 1029.0 |
| 20260903221809 | 22 | 75 | 8.0 | 9.7 | 0.00 | 0.00 | 0.00 | 31 | 1029.0 |
| 20260903221308 | 21 | 349 | 6.4 | 11.3 | 0.00 | 0.00 | 0.00 | 32 | 1029.1 |
| 20260903220806 | 21 | 322 | 4.8 | 11.3 | 0.00 | 0.00 | 0.00 | 33 | 1029.4 |
| 20260903220300 | 22 | 20 | 6.4 | 9.7 | 0.00 | 0.00 | 0.00 | 33 | 1029.3 |
| 20260903215753 | 22 | 55 | 6.4 | 9.7 | 0.00 | 0.00 | 0.00 | 31 | 1029.1 |
| 20260903215250 | 22 | 352 | 8.0 | 14.5 | 0.00 | 0.00 | 0.00 | 33 | 1029.1 |
| 20260903214747 | 21 | 25 | 4.8 | 9.7 | 0.00 | 0.00 | 0.00 | 32 | 1029.1 |
| 20260903214244 | 21 | 60 | 4.8 | 12.9 | 0.00 | 0.00 | 0.00 | 33 | 1029.1 |
| 20260903213738 | 21 | 236 | 9.7 | 16.1 | 0.00 | 0.00 | 0.00 | 33 | 1029.3 |
| 20260903213234 | 21 | 282 | 6.4 | 11.3 | 0.00 | 0.00 | 0.00 | 33 | 1029.0 |
| 20260903212729 | 21 | 299 | 9.7 | 25.7 | 0.00 | 0.00 | 0.00 | 33 | 1029.0 |
| 20260903212226 | 21 | 71 | 8.0 | 16.1 | 0.00 | 0.00 | 0.00 | 34 | 1029.3 |
| 20260903211725 | 21 | 301 | 8.0 | 22.5 | 0.00 | 0.00 | 0.00 | 34 | 1029.3 |
| 20260903211221 | 21 | 234 | 3.2 | 11.3 | 0.00 | 0.00 | 0.00 | 34 | 1029.1 |
| 20260903210717 | 21 | 354 | 6.4 | 12.9 | 0.00 | 0.00 | 0.00 | 33 | 1029.3 |
| 20260903210213 | 20 | 14 | 9.7 | 12.9 | 0.00 | 0.00 | 0.00 | 35 | 1029.4 |
| 20260903205712 | 20 | 333 | 1.6 | 12.9 | 0.00 | 0.00 | 0.00 | 36 | 1029.4 |
| 20260903205211 | 21 | 346 | 6.4 | 11.3 | 0.00 | 0.00 | 0.00 | 34 | 1029.6 |
| 20260903204707 | 21 | 5 | 6.4 | 16.1 | 0.00 | 0.00 | 0.00 | 34 | 1029.5 |
| 20260903204203 | 21 | 333 | 9.7 | 11.3 | 0.00 | 0.00 | 0.00 | 34 | 1029.6 |
| 20260903203658 | 21 | 20 | 14.5 | 24.1 | 0.00 | 0.00 | 0.00 | 33 | 1029.4 |
| 20260903203153 | 22 | 3 | 6.4 | 14.5 | 0.00 | 0.00 | 0.00 | 35 | 1029.4 |
| 20260903202648 | 22 | 7 | 1.6 | 11.3 | 0.00 | 0.00 | 0.00 | 32 | 1029.4 |
| 20260903202144 | 22 | 13 | 8.0 | 17.7 | 0.00 | 0.00 | 0.00 | 34 | 1029.6 |
| 20260903201638 | 23 | 350 | 4.8 | 14.5 | 0.00 | 0.00 | 0.00 | 31 | 1029.4 |
| 20260903201137 | 22 | 59 | 6.4 | 11.3 | 0.00 | 0.00 | 0.00 | 30 | 1029.1 |
| 20260903200632 | 22 | 338 | 11.3 | 12.9 | 0.00 | 0.00 | 0.00 | 32 | 1029.5 |
| 20260903200128 | 21 | 0 | 6.4 | 9.7 | 0.00 | 0.00 | 0.00 | 34 | 1029.4 |
| 20260903195623 | 21 | 316 | 9.7 | 14.5 | 0.00 | 0.00 | 0.00 | 34 | 1029.5 |
| 20260903195119 | 22 | 287 | 4.8 | 25.7 | 0.00 | 0.00 | 0.00 | 31 | 1029.5 |
| 20260903194614 | 21 | 39 | 12.9 | 17.7 | 0.00 | 0.00 | 0.00 | 30 | 1029.5 |
| 20260903194109 | 22 | 258 | 9.7 | 14.5 | 0.00 | 0.00 | 0.00 | 29 | 1029.6 |
| 20260903193605 | 22 | 183 | 3.2 | 9.7 | 0.00 | 0.00 | 0.00 | 30 | 1029.6 |
| 20260903193100 | 21 | 72 | 1.6 | 6.4 | 0.00 | 0.00 | 0.00 | 32 | 1029.8 |
| 20260903192557 | 21 | 10 | 4.8 | 6.4 | 0.00 | 0.00 | 0.00 | 33 | 1029.8 |
| 20260903192057 | 22 | 31 | 1.6 | 4.8 | 0.00 | 0.00 | 0.00 | 33 | 1029.9 |
| 20260903191553 | 21 | 224 | 1.6 | 6.4 | 0.00 | 0.00 | 0.00 | 31 | 1029.8 |
| 20260903191048 | 21 | 216 | 1.6 | 3.2 | 0.00 | 0.00 | 0.00 | 32 | 1030.0 |
| 20260903190547 | 21 | 120 | 1.6 | 9.7 | 0.00 | 0.00 | 0.00 | 32 | 1029.8 |
| 20260903190047 | 21 | 311 | 1.6 | 6.4 | 0.00 | 0.00 | 0.00 | 33 | 1029.9 |
| 20260903185542 | 20 | 261 | 3.2 | 11.3 | 0.00 | 0.00 | 0.00 | 33 | 1030.2 |
| 20260903185038 | 21 | 1 | 6.4 | 12.9 | 0.00 | 0.00 | 0.00 | 32 | 1030.0 |
| 20260903184534 | 21 | 7 | 8.0 | 11.3 | 0.00 | 0.00 | 0.00 | 34 | 1030.0 |
| 20260903184029 | 21 | 13 | 3.2 | 6.4 | 0.00 | 0.00 | 0.00 | 33 | 1030.2 |
| 20260903183528 | 20 | 101 | 4.8 | 6.4 | 0.00 | 0.00 | 0.00 | 33 | 1030.3 |
| 20260903183024 | 20 | 198 | 11.3 | 12.9 | 0.00 | 0.00 | 0.00 | 35 | 1030.6 |
| 20260903182522 | 20 | 264 | 1.6 | 4.8 | 0.00 | 0.00 | 0.00 | 34 | 1030.7 |